sat.trackr.live / text

‹ back to catalog

STARLINK-31848

NORAD 59784 · 2024-093C

PAYLOAD ACTIVE UNKNOWN

§ Identity

Operator
Country
US
Launch date
2024-05-18
Launch site
AFETR
Launch vehicle
Mass (kg)
RCS (m²)

Purposes: comms

External: N2YO · Heavens-Above · Gunter

§ Orbital elements

Epoch: 2026-05-24T09:27:06.300288Z

Period
94.27 min
Inclination
43.0013°
Eccentricity
0.0001011
Mean motion
15.27591033 rev/d
Perigee alt
482.3 km
Apogee alt
483.7 km
Semi-major
6,861.2 km
B*
5.8568e-5
RAAN
137.8773°
Arg perigee
268.2517°
Mean anomaly
91.8219°
Rev number
11,431

§ Raw data

STARLINK-318481 59784U 24093C   26144.39382292  .00001350  00000+0  58568-4 0  99902 59784  43.0013 137.8773 0001011 268.2517  91.8219 15.27591033114312

JSON: /api/v1/satellites/59784 · /tle

For live sub-satellite position, see the globe view (requires WebGL).

§ Visibility from observer

Set your observer location to see the next 7 days of passes ≥ 10°. The values pass through the URL so the page stays shareable.

No JS? Fill the form by hand. The geolocation button needs JavaScript.